Regional Weather Roundup
Issued by NWS Albany, NY

Home | Current Version | Previous Version | Text Only | Print | Product List | Glossary Off
Versions: 1 2 3 4 5 6 7 8 9 10 11 12 13 14 15 16 17 18 19 20 21 22 23 24 25 26 27

000
ASUS41 KALY 290610
RWRALY

NEW YORK STATE HOURLY WEATHER ROUNDUP
NATIONAL WEATHER SERVICE ALBANY NY
200 AM EDT THU JUN 29 2017

NOTE: "FAIR" INDICATES FEW OR NO CLOUDS BELOW 12,000 FEET WITH NO
SIGNIFICANT WEATHER AND/OR NO OBSTRUCTIONS TO VISIBILITY.

NYZ032-033-038>043-046>054-057>066-NYZ062>081-082-084-290700-
EAST


CITY           SKY/WX    TMP DP  RH WIND       PRES   REMARKS
ALBANY         CLOUDY    63  53  70 S5        30.08S
GLENS FALLS    MOCLDY    53  52  96 CALM      30.07S
POUGHKEEPSIE   MOCLDY    59  54  83 CALM      30.10R
NEWBURGH       CLEAR     64  54  68 SW5       30.13R
MONTGOMERY     MOCLDY    61  54  77 SW6       30.12R
WHITE PLAINS   CLEAR     67  50  54 W3        30.14R
ISLIP          CLEAR     66  57  72 W7        30.13R
NEW YORK CITY  MOCLDY    72  54  53 SW10      30.13R
CENTRAL PARK   CLEAR     70  53  54 W7        30.16R
$$

NYZ005>009-017-018-044>046-055-056-290700-
CENTRAL


CITY           SKY/WX    TMP DP  RH WIND       PRES   REMARKS
FULTON         CLOUDY    60  56  86 CALM      30.06R
SYRACUSE       CLOUDY    62  57  83 CALM      30.06R
ROME           CLOUDY    59  56  89 CALM      30.08R
ELMIRA         PTCLDY    58  56  93 CALM      30.10R
BINGHAMTON     PTCLDY    61  49  64 S5        30.12R
MONTICELLO     PTCLDY    55  52  88 CALM      30.16R
$$

NYZ026>034-041>043-087-290700-
NORTH


CITY           SKY/WX    TMP DP  RH WIND       PRES   REMARKS
WATERTOWN      CLOUDY    61  50  67 CALM      30.04R
FORT DRUM      NOT AVBL
OGDENSBURG     FAIR      56  54  93 S5        30.02R
MASSENA        PTCLDY    55  52  89 CALM      30.02R
SARANAC LAKE   CLEAR     44  44 100 CALM      30.06S
PLATTSBURGH    CLOUDY    57  51  80 VRB5      30.01S
$$

NYZ001>004-010>016-019>021-085-290700-
WEST


CITY           SKY/WX    TMP DP  RH WIND       PRES   REMARKS
NIAGARA FALLS  LGT RAIN  67  57  70 S9        30.02F
BUFFALO        CLOUDY    64  55  72 S9        30.04S
DUNKIRK        CLOUDY    66  53  63 S9        30.03F
JAMESTOWN      CLOUDY    61  48  63 S6        30.07S
WELLSVILLE     CLOUDY    63  49  60 VRB3      30.12F
ROCHESTER      CLOUDY    65  55  70 SW5       30.05S
PENN YAN       CLOUDY    65  51  60 SW7       30.08F
$$

             KEY
       WCI = WIND CHILL INDEX
       VSB = VISIBILITY
       HX  = HEAT INDEX
$$




USA.gov is the U.S. government's official web portal to all federal, state and local government web resources and services.